Location: Lawrence
(38.9720°N, 95.2350°W)
Time: 23:37:11
(UTC-06:00)

Amateur Radio Satellites - All Passes

Search period start: 31 January 2015 23:07
Search period end: 01 February 2015 23:07
Location: Lawrence, 38.9720°N, 95.2350°W

Satellite Date Start Highest point End Downlink Frequencies (MHz)
Time Altitude Azimuth
NANOSAT C BR1 31 Jan 23:07:17 23:11:30 52° 100° (E) 23:15:41 145.865
SPROUT 31 Jan 23:16:34 23:20:32 36° 72° (ENE) 23:24:32 437.525
AISAT 31 Jan 23:17:25 23:20:45 20° 267° (W) 23:24:00 437.250
QB50P2 31 Jan 23:23:14 23:27:34 83° 102° (ESE) 23:31:50 145.880/145.840
ANTELSAT 31 Jan 23:24:54 23:29:15 56° 286° (WNW) 23:33:28 437.575/2403.000
BUGSAT 1 31 Jan 23:28:09 23:32:27 71° 101° (ESE) 23:36:43 437.445
ESTCUBE 1 31 Jan 23:28:28 23:32:35 35° 263° (W) 23:36:41 437.505/2401.250
TIGRISAT 31 Jan 23:30:59 23:35:15 49° 287° (WNW) 23:39:25 435.000
QB50P1 31 Jan 23:31:33 23:35:52 80° 284° (WNW) 23:40:09 145.935-145.965
GONETS M04 31 Jan 23:33:00 23:36:55 15° 79° (E) 23:41:29
CUBEBUG 1 31 Jan 23:43:15 23:46:54 25° 265° (W) 23:50:31 437.445
TISAT 1 31 Jan 23:43:25 23:47:38 74° 76° (ENE) 23:51:55 437.305
VELOX 1 31 Jan 23:47:20 23:47:51 10° 272° (W) 23:48:03 145.980
POLYITAN 1 31 Jan 23:48:26 23:52:38 50° 286° (WNW) 23:56:46 437.675
SWISSCUBE 31 Jan 23:53:06 23:55:59 17° 65° (ENE) 23:59:03 437.505
POPSAT HIP 1 01 Feb 00:07:09 00:11:01 32° 289° (WNW) 00:14:48 437.405
BEESAT 01 Feb 00:07:36 00:11:07 21° 67° (ENE) 00:14:46 436.000
DUCHIFAT 1 01 Feb 00:08:04 00:11:54 31° 289° (WNW) 00:15:39 145.980
ITUPSAT 1 01 Feb 00:13:08 00:16:50 24° 68° (ENE) 00:20:40 437.325
UNISAT 6 01 Feb 00:27:10 00:29:21 13° 295° (WNW) 00:31:18 437.425
BEESAT 3 01 Feb 00:35:15 00:37:22 14° 110° (ESE) 00:39:40 437.485
NANOSAT C BR1 01 Feb 00:44:45 00:46:59 14° 294° (WNW) 00:49:01 145.865
SPROUT 01 Feb 00:53:45 00:56:47 18° 268° (W) 00:59:43 437.525
BUGSAT 1 01 Feb 01:06:35 01:07:26 10° 296° (WNW) 01:08:03 437.445
STARS 01 Feb 01:07:30 01:08:20 11° 63° (ENE) 01:09:26 437.465
O/OREOS (USA 219) 01 Feb 01:12:00 01:16:10 33° 62° (ENE) 01:20:22 437.305
KKS-1 01 Feb 01:17:48 01:21:09 21° 68° (ENE) 01:24:37 437.445
GONETS M04 01 Feb 01:23:51 01:32:37 83° 96° (E) 01:41:22
SWISSCUBE 01 Feb 01:28:52 01:33:30 51° 260° (W) 01:38:08 437.505
BEESAT 01 Feb 01:44:19 01:48:46 38° 263° (W) 01:53:12 436.000
Gurwin Techsat 1B 01 Feb 01:44:49 01:47:32 14° 89° (E) 01:50:31 435.225
Oscar 19 01 Feb 01:45:21 01:50:28 64° 101° (E) 01:55:33 437.125/150
ISS 01 Feb 01:49:03 01:50:52 14° 17° (NNE) 01:52:42 145.825
ITUPSAT 1 01 Feb 01:50:15 01:54:36 34° 263° (W) 01:58:55 437.325
BEESAT 2 01 Feb 01:59:57 02:04:04 74° 302° (WNW) 02:08:15 435.950
ITAMSAT 1 01 Feb 02:08:17 02:13:03 36° 97° (E) 02:17:52 435.822/435.867
BEESAT 3 01 Feb 02:11:10 02:15:09 48° 305° (NW) 02:19:10 437.485
AIST 2 01 Feb 02:11:25 02:15:34 58° 118° (ESE) 02:19:48 435.215
DANDE 01 Feb 02:16:18 02:18:21 11° 79° (E) 02:21:11 436.750
M-CUBED/EXP-1 PRIME 01 Feb 02:22:42 02:26:26 41° 69° (ENE) 02:29:56 437.505
CUSAT 1 01 Feb 02:26:22 02:31:05 17° 83° (E) 02:36:20 437.405
PCSat 01 Feb 02:36:13 02:39:16 16° 106° (ESE) 02:42:35 145.827
STARS 01 Feb 02:39:50 02:44:17 75° 258° (WSW) 02:48:46 437.465
O/OREOS (USA 219) 01 Feb 02:51:49 02:55:26 22° 257° (WSW) 02:58:55 437.305
AUBIESAT-1 01 Feb 02:53:07 02:57:04 89° 247° (WSW) 03:00:43 437.475
KKS-1 01 Feb 02:53:32 02:57:38 34° 263° (W) 03:01:43 437.445
HORYU 2 01 Feb 03:00:48 03:04:15 22° 94° (E) 03:07:46 437.375
MOZHAYETS 4 01 Feb 03:19:03 03:21:54 17° 67° (ENE) 03:24:54
Gurwin Techsat 1B 01 Feb 03:22:47 03:28:04 65° 287° (WNW) 03:33:19 435.225
GONETS M04 01 Feb 03:24:31 03:30:44 20° 297° (WNW) 03:36:30
ISS 01 Feb 03:24:39 03:27:55 59° 36° (NE) 03:31:10 145.825
Oscar 19 01 Feb 03:26:18 03:29:21 15° 296° (WNW) 03:32:10 437.125/150
JAS-2 01 Feb 03:36:09 03:38:23 12° 89° (E) 03:41:10 435.910
RS-15 01 Feb 03:39:07 03:48:47 40° 109° (ESE) 03:58:42 29.354- 29.394
ITAMSAT 1 01 Feb 03:48:04 03:52:26 27° 293° (WNW) 03:56:43 435.822/435.867
AIST 2 01 Feb 03:51:50 03:54:37 16° 316° (NW) 03:57:17 435.215
DANDE 01 Feb 03:52:22 04:00:31 62° 94° (E) 04:09:00 436.750
M-CUBED/EXP-1 PRIME 01 Feb 03:59:42 04:01:35 13° 262° (W) 04:03:15 437.505
CUSAT 1 01 Feb 04:04:56 04:13:15 84° 98° (E) 04:21:36 437.405
AO-7 01 Feb 04:12:30 04:20:35 53° 101° (E) 04:28:38 29.400- 29.500
PCSat 01 Feb 04:16:50 04:22:12 65° 300° (WNW) 04:27:38 145.827
HORYU 2 01 Feb 04:37:03 04:40:59 31° 290° (WNW) 04:44:51 437.375
MOZHAYETS 4 01 Feb 04:54:24 04:58:50 46° 262° (W) 05:03:14
ISS 01 Feb 05:02:21 05:04:05 13° 230° (SW) 05:05:42 145.825
STRAND 1 01 Feb 05:05:17 05:07:48 14° 63° (ENE) 05:10:33 437.568
JAS-2 01 Feb 05:18:15 05:24:07 87° 285° (WNW) 05:30:46 435.910
CUBESAT XI-V 01 Feb 05:19:32 05:23:07 23° 69° (ENE) 05:26:48 437.345
YUBILEINY 01 Feb 05:33:08 05:40:24 29° 68° (ENE) 05:47:55 435.215
DANDE 01 Feb 05:37:05 05:44:32 32° 292° (WNW) 05:51:51 436.750
PRISM 01 Feb 05:38:46 05:42:45 52° 74° (ENE) 05:46:47 437.425
RS-15 01 Feb 05:50:07 06:00:50 57° 310° (NW) 06:11:38 29.354- 29.394
CUSAT 1 01 Feb 05:50:51 05:57:16 22° 296° (WNW) 06:03:15 437.405
PCSat 01 Feb 06:05:00 06:06:49 11° 322° (NW) 06:08:24 145.827
AO-7 01 Feb 06:05:46 06:13:08 35° 299° (WNW) 06:20:18 29.400- 29.500
Cubesat XI-IV 01 Feb 06:15:02 06:20:08 43° 98° (E) 06:25:15 437.490
VERMONT LUNAR 01 Feb 06:26:41 06:28:58 17° 148° (SSE) 06:31:19 437.305
CUTE-I 01 Feb 06:33:55 06:39:16 64° 101° (E) 06:44:36 437.470
STRAND 1 01 Feb 06:41:25 06:46:29 70° 258° (WSW) 06:51:36 437.568
CUBESAT XI-V 01 Feb 06:56:17 07:00:26 32° 264° (W) 07:04:34 437.345
JAS-2 01 Feb 07:06:06 07:08:45 13° 297° (WNW) 07:11:08 435.910
PRISM 01 Feb 07:17:16 07:18:41 11° 270° (W) 07:19:52 437.425
YUBILEINY 01 Feb 07:29:14 07:37:50 59° 268° (W) 07:46:22 435.215
BRITE-PL 01 Feb 07:32:22 07:33:24 11° 84° (E) 07:34:50 437.365/2234.400
PHONESAT 2.4 01 Feb 07:43:52 07:47:07 33° 154° (SSE) 07:50:25 2401.200-2431.200
Cubesat XI-IV 01 Feb 07:55:44 08:00:01 24° 294° (WNW) 08:04:09 437.490
VERMONT LUNAR 01 Feb 08:03:15 08:06:42 68° 163° (SSE) 08:10:10 437.305
RS-15 01 Feb 08:08:33 08:16:28 21° 340° (NNW) 08:24:16 29.354- 29.394
CUTE-I 01 Feb 08:15:29 08:18:53 17° 297° (WNW) 08:22:03 437.470
HO-68 01 Feb 08:22:11 08:28:14 30° 95° (E) 08:34:26 435.675
COMPASS 1 01 Feb 08:25:58 08:28:05 14° 90° (E) 08:30:23 437.405
SO-50 01 Feb 08:36:00 08:38:38 16° 110° (ESE) 08:41:31 436.795
DOVE 4 01 Feb 08:43:05 08:47:16 26° 92° (E) 08:51:22 437.250
GOMX 1 01 Feb 08:45:58 08:50:58 40° 96° (E) 08:55:44 467.674
CANX-2 01 Feb 08:48:47 08:52:48 41° 98° (E) 08:56:48 2200.000
AAUSAT CUBESAT 2 01 Feb 08:48:47 08:52:02 22° 94° (E) 08:55:22 437.432
ANTELSAT 01 Feb 08:49:12 08:50:38 12° 64° (ENE) 08:52:19 437.575/2403.000
TIGRISAT 01 Feb 08:54:22 08:56:20 13° 65° (ENE) 08:58:32 435.000
BRITE-PL 01 Feb 09:07:11 09:12:52 89° 294° (WNW) 09:18:13 437.365/2234.400
CUTE 1.7 + AOD 2 01 Feb 09:12:18 09:16:31 73° 101° (E) 09:20:43 437.475
PHONESAT 2.4 01 Feb 09:21:55 09:25:32 82° 349° (N) 09:29:10 2401.200-2431.200
POPSAT HIP 1 01 Feb 09:24:49 09:27:04 15° 66° (ENE) 09:29:31 437.405
DUCHIFAT 1 01 Feb 09:25:27 09:27:42 15° 66° (ENE) 09:30:08 145.980
Oscar 11 01 Feb 09:25:51 09:29:35 29° 96° (E) 09:33:21 145.826/435.025
UWE-3 01 Feb 09:29:04 09:32:07 19° 91° (E) 09:35:15 435.000/436.395/437.385
SEEDS 01 Feb 09:38:18 09:42:27 65° 284° (WNW) 09:46:35 437.485
VERMONT LUNAR 01 Feb 09:41:23 09:44:51 65° 359° (N) 09:48:20 437.305
CINEMA 3 01 Feb 09:42:07 09:46:49 57° 99° (E) 09:51:19 145.822/145.860
UNISAT 6 01 Feb 09:46:11 09:50:39 45° 73° (ENE) 09:55:08 437.425
NANOSAT C BR1 01 Feb 09:59:04 10:02:54 34° 71° (ENE) 10:06:49 145.865
DELFI C3 01 Feb 09:59:40 10:03:40 58° 100° (E) 10:07:40 145.870
VELOX 1 01 Feb 09:59:53 10:02:13 14° 90° (E) 10:04:46 145.980
COMPASS 1 01 Feb 10:00:08 10:04:06 43° 286° (WNW) 10:08:01 437.405
HUMSAT D 01 Feb 10:01:51 10:04:45 18° 92° (E) 10:07:43 437.325/437.525
UKube-1 01 Feb 10:02:51 10:06:57 40° 98° (E) 10:11:04 .
HO-68 01 Feb 10:09:22 10:16:14 50° 292° (WNW) 10:23:02 435.675
SO-50 01 Feb 10:14:17 10:18:46 54° 306° (NW) 10:23:25 436.795
QB50P2 01 Feb 10:15:01 10:19:11 53° 74° (ENE) 10:23:24 145.880/145.840
BUGSAT 1 01 Feb 10:17:21 10:21:11 40° 73° (ENE) 10:25:08 437.445
DOVE 4 01 Feb 10:20:29 10:25:07 34° 290° (WNW) 10:29:28 437.250
BEESAT 2 01 Feb 10:21:02 10:25:04 46° 54° (NE) 10:29:03 435.950
ANTELSAT 01 Feb 10:22:10 10:26:54 76° 257° (WSW) 10:31:37 437.575/2403.000
QB50P1 01 Feb 10:23:03 10:27:17 65° 75° (ENE) 10:31:34 145.935-145.965
AAUSAT CUBESAT 2 01 Feb 10:24:11 10:27:43 27° 289° (WNW) 10:31:10 437.432
ZACube-1 01 Feb 10:24:18 10:28:41 66° 101° (E) 10:32:55 437.345
GOMX 1 01 Feb 10:24:31 10:28:51 25° 293° (WNW) 10:32:54 467.674
CANX-2 01 Feb 10:25:50 10:28:27 16° 293° (WNW) 10:30:54 2200.000
RS-15 01 Feb 10:27:14 10:34:36 19° 16° (NNE) 10:42:23 29.354- 29.394
DX 1 01 Feb 10:27:32 10:31:58 82° 103° (ESE) 10:36:22 434.975-435.025
TIGRISAT 01 Feb 10:27:55 10:32:37 67° 259° (W) 10:37:18 435.000
BEESAT 3 01 Feb 10:31:35 10:35:44 69° 57° (ENE) 10:39:49 437.485
CUBEBUG 2 01 Feb 10:31:39 10:36:10 71° 284° (WNW) 10:40:29 437.445
AIST 2 01 Feb 10:34:46 10:38:29 28° 50° (NE) 10:42:11 435.215
FUNcube-1 01 Feb 10:35:05 10:39:30 86° 101° (E) 10:43:45 145.935
POLYITAN 1 01 Feb 10:40:06 10:44:24 79° 258° (WSW) 10:48:46 437.675
50 SAT 01 Feb 10:41:31 10:45:18 38° 98° (E) 10:49:02 437.505
BRITE-PL 01 Feb 10:48:09 10:50:34 13° 299° (WNW) 10:52:39 437.365/2234.400
AIST 1 01 Feb 10:55:52 10:59:59 53° 94° (E) 11:04:10
POPSAT HIP 1 01 Feb 10:58:28 11:02:37 48° 261° (W) 11:06:49 437.405
DUCHIFAT 1 01 Feb 10:59:04 11:03:12 48° 261° (W) 11:07:22 145.980
PHONESAT 2.4 01 Feb 11:00:37 11:04:14 71° 6° (N) 11:07:52 2401.200-2431.200
Oscar 11 01 Feb 11:02:15 11:05:40 23° 291° (WNW) 11:08:59 145.826/435.025
UWE-3 01 Feb 11:04:46 11:08:52 36° 289° (WNW) 11:12:48 435.000/436.395/437.385
AISAT 01 Feb 11:08:14 11:12:46 86° 103° (ESE) 11:17:16 437.250
VERMONT LUNAR 01 Feb 11:19:33 11:23:03 81° 196° (SSW) 11:26:33 437.305
CINEMA 3 01 Feb 11:20:52 11:23:33 15° 296° (WNW) 11:25:59 145.822/145.860
ESTCUBE 1 01 Feb 11:22:01 11:26:27 52° 100° (E) 11:30:53 437.505/2401.250
UNISAT 6 01 Feb 11:24:28 11:27:42 17° 269° (W) 11:30:44 437.425
PCSat 01 Feb 11:24:30 11:26:55 13° 40° (NE) 11:29:33 145.827
Oscar 19 01 Feb 11:27:21 11:27:26 10° 61° (ENE) 11:27:50 437.125/150
TISAT 1 01 Feb 11:31:24 11:33:19 13° 90° (E) 11:35:27 437.305
CUBEBUG 1 01 Feb 11:32:32 11:36:58 64° 101° (E) 11:41:23 437.445
VELOX 1 01 Feb 11:34:48 11:39:10 49° 287° (WNW) 11:43:29 145.980
NANOSAT C BR1 01 Feb 11:35:46 11:38:54 19° 267° (W) 11:41:56 145.865
GONETS M04 01 Feb 11:35:58 11:43:54 39° 72° (ENE) 11:51:55
HUMSAT D 01 Feb 11:36:52 11:40:41 33° 288° (WNW) 11:44:24 437.325/437.525
DELFI C3 01 Feb 11:37:19 11:38:29 11° 294° (WNW) 11:39:25 145.870
UKube-1 01 Feb 11:39:53 11:42:52 18° 293° (WNW) 11:45:42 .
QB50P2 01 Feb 11:53:36 11:55:31 12° 271° (W) 11:57:11 145.880/145.840
BUGSAT 1 01 Feb 11:54:31 11:56:58 15° 269° (W) 11:59:15 437.445
BEESAT 2 01 Feb 12:00:26 12:02:57 15° 250° (WSW) 12:05:17 435.950
ZACube-1 01 Feb 12:03:06 12:04:33 11° 296° (WNW) 12:05:45 437.345
AIST 2 01 Feb 12:13:24 12:17:04 27° 247° (WSW) 12:20:36 435.215
50 SAT 01 Feb 12:17:39 12:20:07 16° 293° (WNW) 12:22:26 437.505
AIST 1 01 Feb 12:36:31 12:38:08 12° 292° (WNW) 12:39:30
PHONESAT 2.4 01 Feb 12:39:15 12:42:46 48° 203° (SSW) 12:46:17 2401.200-2431.200
RS-15 01 Feb 12:40:05 12:50:53 48° 46° (NE) 13:02:14 29.354- 29.394
SPROUT 01 Feb 12:40:09 12:44:32 87° 101° (E) 12:48:52 437.525
VERMONT LUNAR 01 Feb 12:58:05 13:00:52 22° 210° (SSW) 13:03:37 437.305
ESTCUBE 1 01 Feb 13:00:18 13:02:58 15° 294° (WNW) 13:05:27 437.505/2401.250
Oscar 19 01 Feb 13:00:52 13:06:04 82° 76° (ENE) 13:11:18 437.125/150
Gurwin Techsat 1B 01 Feb 13:04:26 13:08:20 22° 66° (ENE) 13:12:23 435.225
TISAT 1 01 Feb 13:05:20 13:09:31 49° 287° (WNW) 13:13:38 437.305
PCSat 01 Feb 13:05:54 13:11:21 77° 61° (ENE) 13:16:46 145.827
CUBEBUG 1 01 Feb 13:10:59 13:12:54 12° 295° (WNW) 13:14:34 437.445
AO-7 01 Feb 13:23:06 13:26:38 14° 49° (NE) 13:30:38 29.400- 29.500
ITAMSAT 1 01 Feb 13:25:03 13:30:00 48° 72° (ENE) 13:35:01 435.822/435.867
SWISSCUBE 01 Feb 13:30:26 13:35:01 44° 99° (E) 13:39:36 437.505
GONETS M04 01 Feb 13:32:46 13:40:51 44° 271° (W) 13:48:50
BEESAT 01 Feb 13:45:26 13:50:10 59° 101° (E) 13:54:53 436.000
ITUPSAT 1 01 Feb 13:51:34 13:56:20 67° 101° (E) 14:01:07 437.325
HORYU 2 01 Feb 13:58:39 14:01:47 19° 67° (ENE) 14:05:04 437.375
PHONESAT 2.4 01 Feb 14:19:38 14:20:51 11° 216° (SW) 14:21:56 2401.200-2431.200
STARS 01 Feb 14:31:49 14:35:15 22° 94° (E) 14:38:45 437.465
DANDE 01 Feb 14:40:28 14:46:10 38° 70° (ENE) 14:50:30 436.750
Gurwin Techsat 1B 01 Feb 14:42:56 14:48:02 46° 261° (W) 14:53:09 435.225
Oscar 19 01 Feb 14:44:51 14:46:10 11° 273° (W) 14:47:05 437.125/150
KKS-1 01 Feb 14:45:35 14:49:57 49° 99° (E) 14:54:17 437.445
CUSAT 1 01 Feb 14:50:26 14:56:03 56° 75° (ENE) 15:00:10 437.405
PCSat 01 Feb 14:51:40 14:54:11 13° 256° (WSW) 14:56:22 145.827
RS-15 01 Feb 14:52:35 15:03:34 53° 248° (WSW) 15:14:54 29.354- 29.394
ITAMSAT 1 01 Feb 15:06:07 15:09:50 19° 268° (W) 15:13:23 435.822/435.867
SWISSCUBE 01 Feb 15:09:11 15:12:36 19° 294° (WNW) 15:15:53 437.505
AO-7 01 Feb 15:09:48 15:18:00 64° 68° (ENE) 15:26:15 29.400- 29.500
O/OREOS (USA 219) 01 Feb 15:22:49 15:27:07 47° 107° (ESE) 15:31:29 437.305
BEESAT 01 Feb 15:24:51 15:27:36 15° 295° (WNW) 15:30:09 436.000
JAS-2 01 Feb 15:30:52 15:35:30 31° 69° (ENE) 15:40:04 435.910
ITUPSAT 1 01 Feb 15:31:23 15:33:45 13° 296° (WNW) 15:35:54 437.325
HORYU 2 01 Feb 15:34:01 15:38:14 38° 262° (W) 15:42:26 437.375
M-CUBED/EXP-1 PRIME 01 Feb 15:40:21 15:43:30 36° 104° (ESE) 15:46:48 437.505
STARS 01 Feb 16:07:51 16:11:47 31° 290° (WNW) 16:15:40 437.465
AUBIESAT-1 01 Feb 16:10:17 16:13:39 88° 107° (ESE) 16:17:12 437.475
CUTE-I 01 Feb 16:18:48 16:20:34 12° 61° (ENE) 16:22:39 437.470
KKS-1 01 Feb 16:23:30 16:26:15 16° 294° (WNW) 16:28:48 437.445
DANDE 01 Feb 16:24:41 16:29:08 22° 277° (W) 16:32:36 436.750
CUSAT 1 01 Feb 16:35:43 16:38:00 12° 280° (W) 16:39:47 437.405
MOZHAYETS 4 01 Feb 16:50:42 16:55:04 44° 98° (E) 16:59:28
O/OREOS (USA 219) 01 Feb 17:03:53 17:06:52 17° 305° (NW) 17:09:45 437.305
AO-7 01 Feb 17:04:27 17:11:24 27° 266° (W) 17:18:06 29.400- 29.500
SO-50 01 Feb 17:07:35 17:10:24 15° 40° (NE) 17:13:23 436.795
JAS-2 01 Feb 17:16:01 17:20:42 28° 264° (W) 17:25:07 435.910
M-CUBED/EXP-1 PRIME 01 Feb 17:16:56 17:18:18 12° 297° (WNW) 17:19:32 437.505
Cubesat XI-IV 01 Feb 17:35:52 17:41:07 63° 73° (ENE) 17:46:25 437.490
CUTE-I 01 Feb 17:54:39 17:59:59 88° 256° (WSW) 18:05:22 437.470
JUGNU 01 Feb 18:06:22 18:07:57 11° 182° (S) 18:09:32 437.505
MOZHAYETS 4 01 Feb 18:28:57 18:32:01 17° 293° (WNW) 18:34:56
YUBILEINY 01 Feb 18:32:56 18:40:20 34° 86° (E) 18:47:57 435.215
BRITE-PL 01 Feb 18:41:48 18:43:32 12° 61° (ENE) 18:45:37 437.365/2234.400
SO-50 01 Feb 18:46:42 18:51:40 85° 240° (WSW) 18:56:35 436.795
HO-68 01 Feb 18:50:53 18:55:49 21° 59° (ENE) 19:00:59 435.675
STRAND 1 01 Feb 18:53:16 18:58:10 44° 98° (E) 19:03:05 437.568
CUBESAT XI-V 01 Feb 18:53:36 18:58:17 68° 101° (E) 19:02:59 437.345
SRMSAT 01 Feb 18:53:38 18:55:27 11° 178° (S) 18:57:18 437.500
PRISM 01 Feb 18:58:01 19:02:11 76° 285° (WNW) 19:06:21 437.425
Cubesat XI-IV 01 Feb 19:18:38 19:21:46 15° 271° (W) 19:24:38 437.490
AAUSAT CUBESAT 2 01 Feb 19:40:00 19:42:14 15° 67° (ENE) 19:44:40 437.432
CANX-2 01 Feb 19:41:02 19:44:37 27° 71° (ENE) 19:48:16 2200.000
DOVE 4 01 Feb 19:47:15 19:51:20 25° 68° (ENE) 19:55:39 437.250
GOMX 1 01 Feb 19:52:19 19:57:03 38° 71° (ENE) 20:02:04 467.674
ISS 01 Feb 20:03:42 20:06:40 33° 135° (SE) 20:09:41 145.825
CUTE 1.7 + AOD 2 01 Feb 20:04:04 20:08:08 44° 74° (ENE) 20:12:13 437.475
BRITE-PL 01 Feb 20:16:04 20:21:12 89° 79° (E) 20:26:47 437.365/2234.400
Oscar 11 01 Feb 20:20:06 20:23:17 21° 69° (ENE) 20:26:35 145.826/435.025
UWE-3 01 Feb 20:25:41 20:28:25 16° 66° (ENE) 20:31:21 435.000/436.395/437.385
YUBILEINY 01 Feb 20:28:33 20:36:55 49° 285° (WNW) 20:45:17 435.215
SEEDS 01 Feb 20:29:04 20:33:19 74° 76° (ENE) 20:37:33 437.485
CUBESAT XI-V 01 Feb 20:33:07 20:35:15 13° 295° (WNW) 20:37:09 437.345
STRAND 1 01 Feb 20:33:10 20:37:07 22° 294° (WNW) 20:40:56 437.568
HO-68 01 Feb 20:35:45 20:42:54 75° 256° (WSW) 20:50:05 435.675
CINEMA 3 01 Feb 20:42:03 20:46:48 48° 73° (ENE) 20:51:40 145.822/145.860
DELFI C3 01 Feb 20:47:01 20:50:36 31° 72° (ENE) 20:54:13 145.870
COMPASS 1 01 Feb 20:50:01 20:54:15 76° 258° (WSW) 20:58:28 437.405
HUMSAT D 01 Feb 20:54:04 20:55:59 13° 66° (ENE) 20:58:08 437.325/437.525
UKube-1 01 Feb 20:57:00 21:00:45 30° 70° (ENE) 21:04:35 .
VELOX 1 01 Feb 20:57:50 20:59:28 12° 64° (ENE) 21:01:20 145.980
AIST 1 01 Feb 21:06:03 21:07:50 13° 68° (ENE) 21:09:52
AAUSAT CUBESAT 2 01 Feb 21:13:33 21:17:36 45° 261° (W) 21:21:38 437.432
CANX-2 01 Feb 21:17:01 21:20:34 24° 266° (W) 21:24:01 2200.000
ZACube-1 01 Feb 21:18:51 21:23:14 46° 73° (ENE) 21:27:39 437.345
DX 1 01 Feb 21:21:55 21:26:12 60° 74° (ENE) 21:30:31 434.975-435.025
DOVE 4 01 Feb 21:24:06 21:28:53 39° 264° (W) 21:33:49 437.250
CUBEBUG 2 01 Feb 21:28:02 21:32:48 83° 76° (ENE) 21:37:37 437.445
50 SAT 01 Feb 21:28:16 21:31:25 22° 70° (ENE) 21:34:39 437.505
FUNcube-1 01 Feb 21:29:18 21:33:49 59° 75° (ENE) 21:38:22 145.935
GOMX 1 01 Feb 21:30:58 21:35:18 26° 268° (W) 21:39:41 467.674
ISS 01 Feb 21:40:19 21:43:11 27° 332° (NNW) 21:46:03 145.825
CUTE 1.7 + AOD 2 01 Feb 21:41:53 21:44:21 14° 270° (W) 21:46:38 437.475
Oscar 11 01 Feb 21:55:22 21:59:19 33° 264° (W) 22:03:14 145.826/435.025
BRITE-PL 01 Feb 21:59:56 22:00:42 10° 277° (W) 22:01:03 437.365/2234.400
UWE-3 01 Feb 21:59:59 22:04:35 53° 261° (W) 22:09:12 435.000/436.395/437.385
AISAT 01 Feb 22:05:00 22:09:24 67° 75° (ENE) 22:13:53 437.250
QB50P1 01 Feb 22:11:57 22:13:22 12° 89° (E) 22:15:03 145.935-145.965
ANTELSAT 01 Feb 22:16:33 22:20:04 24° 94° (E) 22:23:37 437.575/2403.000
ESTCUBE 1 01 Feb 22:20:43 22:24:54 41° 72° (ENE) 22:29:08 437.505/2401.250
CINEMA 3 01 Feb 22:20:47 22:24:18 19° 270° (W) 22:27:43 145.822/145.860
TIGRISAT 01 Feb 22:21:48 22:25:29 26° 94° (E) 22:29:10 435.000
DELFI C3 01 Feb 22:22:58 22:25:56 19° 267° (W) 22:28:46 145.870
HUMSAT D 01 Feb 22:27:06 22:31:23 56° 260° (W) 22:35:40 437.325/437.525
CUBEBUG 1 01 Feb 22:27:42 22:31:50 44° 73° (ENE) 22:36:02 437.445
POLYITAN 1 01 Feb 22:28:07 22:31:08 19° 92° (E) 22:34:14 437.675
HO-68 01 Feb 22:30:09 22:31:59 11° 275° (W) 22:33:09 435.675
VELOX 1 01 Feb 22:31:11 22:35:35 64° 259° (W) 22:40:01 145.980
UKube-1 01 Feb 22:33:32 22:36:58 22° 266° (W) 22:40:19 .
AIST 1 01 Feb 22:41:40 22:45:56 52° 266° (W) 22:50:12
POPSAT HIP 1 01 Feb 22:45:25 22:49:10 29° 96° (E) 22:52:55 437.405
DUCHIFAT 1 01 Feb 22:45:40 22:49:24 29° 96° (E) 22:53:08 145.980
ZACube-1 01 Feb 22:56:53 22:59:53 16° 269° (W) 23:02:43 437.345
DX 1 01 Feb 23:01:36 23:02:57 11° 271° (W) 23:04:01 434.975-435.025
